Wind_Speed
12 12 11 11 10 9 9 9 9 9 9 8 8 8 7 8 8 8 7 7 7 7 7 7 7 6 6 6 6 6 6 6 6 6 5 5 5 5 5 5 4 4 3
11 10 10 10 9 9 9 9 9 8 8 7 7 7 7 7 7 7 7 7 6 6 5 5 6 6 5 6 5 5 6 5 6 6 6 5 5 5 4 4 4 4 4
10 10 9 9 8 8 8 8 8 8 7 7 7 7 7 7 7 7 6 6 6 6 5 6 5 6 6 6 5 5 5 5 5 5 5 5 5 5 4 4 4 4 4
9 9 8 8 8 8 7 7 7 7 7 7 7 7 6 7 6 6 6 6 5 5 5 5 5 5 5 5 5 5 4 4 4 4 4 4 4 4 5 4 4 4 4
8 8 7 7 7 7 7 6 6 6 6 6 6 6 6 6 5 5 5 5 6 5 5 5 5 5 5 5 5 4 4 4 4 4 4 3 4 4 5 5 5 5 4
8 7 7 6 7 7 7 6 6 6 6 6 6 6 6 6 5 6 6 6 5 5 5 5 5 5 5 4 4 4 4 4 4 4 3 3 3 3 4 5 5 5 4
7 7 6 6 6 6 6 6 6 6 6 6 6 6 6 6 6 6 6 6 6 6 5 5 4 4 4 4 4 3 3 4 4 4 3 3 3 3 3 4 4 4 5
6 6 6 6 6 5 5 5 5 5 5 6 6 6 6 6 6 6 6 7 6 6 6 6 5 5 4 4 4 4 3 4 3 3 3 3 3 3 3 3 3 3 4
6 6 6 5 5 5 5 5 5 5 5 5 5 5 5 5 5 5 6 6 6 6 5 5 5 4 4 4 4 4 4 4 3 2 2 2 2 2 2 2 2 2 2
5 6 5 5 5 5 5 5 5 4 4 5 5 5 6 5 4 4 5 5 4 4 5 4 4 4 4 3 3 4 4 4 4 3 2 2 1 1 2 2 2 2 2
4 5 5 6 5 5 5 5 5 5 5 5 5 6 6 6 5 4 4 4 4 3 3 3 4 4 3 3 3 4 4 4 4 3 2 1 1 1 1 1 1 2 1
4 4 5 5 5 5 5 5 5 5 5 5 5 5 5 6 4 4 4 4 3 3 3 3 3 3 2 2 2 3 3 3 3 2 2 1 1 0 0 1 1 1 2
4 4 5 5 4 4 4 5 5 5 6 5 5 5 5 5 4 4 4 4 4 3 2 3 3 2 1 1 2 2 2 2 2 2 1 1 1 1 1 1 2 1 1
4 4 5 5 5 5 5 6 6 6 6 5 5 5 5 4 4 3 4 4 4 3 3 3 3 2 2 2 2 2 2 1 1 2 2 2 1 1 1 1 2 1 1
5 5 5 5 5 6 7 7 7 7 7 6 5 5 4 4 3 3 4 4 4 4 3 3 3 2 3 2 2 2 2 1 1 2 2 2 2 2 1 2 2 2 2
5 6 6 6 7 7 7 7 6 7 7 6 6 5 4 4 4 3 4 5 5 4 3 4 3 3 3 2 2 2 2 2 2 2 2 2 3 2 2 2 2 2 2
6 6 7 7 7 7 7 7 7 7 8 7 6 6 5 4 4 4 4 4 4 4 4 4 4 4 4 3 3 3 2 3 3 2 2 2 3 3 2 2 3 3 3
7 7 8 8 8 8 7 7 7 8 8 8 7 7 6 5 4 5 5 5 4 4 4 4 4 4 4 4 4 3 2 2 3 3 3 3 3 3 3 3 3 3 3
7 7 8 9 9 8 8 8 8 9 9 9 8 8 8 7 6 5 6 6 5 5 5 5 5 5 5 5 4 3 3 3 3 4 4 4 4 4 4 4 4 4 4
7 7 8 10 9 8 8 8 8 8 9 10 10 9 8 8 8 7 7 7 6 6 6 6 6 5 4 4 3 3 4 4 4 4 5 5 5 5 4 4 4 5 5
8 7 9 10 10 9 9 8 8 8 9 9 9 9 8 8 8 7 8 8 7 7 6 6 6 5 5 4 4 4 4 4 5 5 5 5 5 5 6 5 5 5 6
8 8 9 9 10 10 9 9 9 9 8 8 9 9 9 8 8 8 8 8 8 7 7 7 6 6 6 5 5 4 4 5 6 6 6 6 5 5 6 6 6 6 6
8 8 9 9 9 9 9 9 9 9 9 9 9 9 10 9 9 8 8 8 8 8 7 7 6 6 6 6 6 6 5 6 6 6 6 6 6 7 7 7 7 7 7
8 8 8 9 9 9 10 10 9 9 9 9 10 10 10 10 10 9 8 8 9 8 7 7 7 7 7 7 6 6 6 6 5 5 6 6 7 7 8 9 9 9 9
8 8 9 9 9 9 9 10 10 10 10 10 11 10 10 11 12 11 9 8 8 8 8 8 7 8 7 7 7 6 7 7 6 6 7 7 7 8 9 10 10 10 10
9 9 10 9 9 9 10 11 10 10 11 11 11 11 11 11 12 12 10 9 8 8 9 8 7 8 7 7 7 7 7 7 7 7 7 8 8 8 9 10 10 10 11
Wind_Direction
86 85 83 81 81 81 82 82 79 78 87 88 86 85 89 92 91 90 88 87 84 83 85 89 84 83 88 91 93 92 87 84 79 81 89 90 94 96 93 95 94 86 78
86 84 81 79 80 77 78 79 76 77 78 79 78 81 90 88 87 85 84 80 79 78 80 87 88 89 86 91 90 86 84 81 77 80 82 84 91 95 95 95 94 89 82
87 84 80 79 75 72 72 76 75 77 76 77 73 73 78 83 83 82 81 82 85 82 83 86 87 89 87 90 92 89 86 82 79 82 86 87 93 88 85 85 86 89 89
87 83 78 74 71 68 68 70 73 75 73 73 71 69 74 76 83 79 80 82 80 77 78 82 91 89 87 94 92 86 81 81 81 89 93 93 87 81 74 74 78 85 85
87 81 71 67 66 66 64 65 71 69 69 70 69 67 69 74 82 77 75 79 78 74 75 86 90 85 85 91 90 84 82 86 92 90 95 90 78 74 71 70 75 74 79
84 77 69 68 68 65 64 67 66 65 63 64 68 67 63 66 74 74 72 77 81 78 79 81 82 81 84 87 87 81 83 84 101 96 88 84 75 69 66 70 67 71 76
80 74 68 66 65 62 62 65 65 62 59 60 64 67 67 66 65 69 71 73 74 79 79 81 83 84 83 84 84 85 84 86 101 92 87 87 75 65 68 69 68 75 78
75 71 62 56 57 59 60 62 61 56 52 50 54 58 66 69 69 68 64 63 68 75 80 80 79 80 86 90 84 82 77 78 85 97 98 88 82 73 70 66 75 78 81
67 62 52 54 56 57 60 56 51 45 42 39 43 42 48 58 62 63 61 65 71 76 80 76 73 78 84 86 83 76 73 74 78 88 107 99 84 68 64 64 71 71 83
55 49 41 47 52 54 51 44 36 32 34 34 38 39 39 38 42 56 68 68 70 76 77 76 78 83 81 86 83 75 70 66 63 58 76 97 104 75 58 59 56 59 78
47 41 40 43 44 43 40 32 25 23 24 28 36 37 38 39 47 51 59 62 61 71 75 73 75 74 74 85 82 71 66 66 53 50 58 90 121 78 28 49 38 53 63
32 29 34 33 31 28 27 22 15 17 14 22 35 38 37 36 45 52 44 46 48 52 56 52 56 53 66 68 75 66 62 62 54 47 54 63 73 58 359 349 338 359 30
29 26 27 26 20 13 14 18 15 14 19 25 21 23 26 28 39 42 33 33 35 34 38 36 37 19 22 1 33 31 37 50 53 55 59 46 36 4 304 311 311 315 330
25 25 24 18 7 0 4 14 15 13 15 17 14 10 13 15 21 16 18 12 7 0 357 13 12 358 337 338 360 3 3 22 30 27 17 3 357 347 297 304 321 311 302
19 16 18 11 9 13 14 14 19 13 9 6 0 354 359 6 10 6 4 6 1 353 4 359 358 351 340 339 356 2 355 355 358 350 354 2 345 332 293 279 305 316 306
20 18 12 359 1 10 12 11 12 6 1 360 350 347 356 355 347 344 349 355 359 358 4 351 348 347 342 340 346 356 356 335 333 327 316 321 334 329 316 276 284 314 317
15 11 7 8 3 1 3 3 2 1 359 357 353 355 351 343 336 334 334 348 354 351 351 346 334 326 316 315 311 318 330 322 315 314 310 314 324 323 322 314 294 302 307
9 5 2 4 357 353 354 356 358 2 359 2 358 353 348 341 333 329 334 341 344 342 337 338 335 317 310 314 316 315 310 318 306 303 303 306 308 312 314 313 308 301 294
357 354 353 352 353 356 354 351 353 355 354 356 355 347 343 341 332 322 321 328 331 335 333 332 332 323 311 314 312 315 311 311 303 296 297 295 294 302 308 312 307 300 292
351 350 349 349 352 351 352 348 350 353 352 350 351 351 349 343 339 328 323 327 326 327 326 325 327 323 313 311 312 309 303 299 298 295 289 285 286 295 300 304 304 298 293
353 351 350 349 348 347 347 348 347 346 345 348 352 355 352 349 344 335 331 327 324 322 321 324 320 313 310 307 312 306 292 292 296 294 288 282 285 289 296 300 298 295 293
351 352 351 351 348 347 346 347 345 347 351 352 352 356 354 348 342 340 334 329 323 320 316 316 315 308 304 304 302 299 291 294 295 292 288 280 279 286 290 295 292 291 291
344 347 347 347 347 345 345 347 348 345 343 346 348 347 346 346 341 332 334 335 329 324 319 322 325 318 310 306 300 297 298 296 296 298 296 287 285 290 292 294 293 293 290
338 339 342 344 347 344 341 344 344 342 340 340 342 341 342 342 342 338 335 335 336 331 326 324 323 319 315 314 315 308 303 301 301 297 288 286 285 291 293 291 291 291 289
334 336 336 336 340 340 339 340 342 339 336 335 337 337 339 338 335 333 328 326 331 331 325 324 320 322 319 318 316 311 313 311 310 305 298 295 289 290 292 289 289 292 290
333 334 336 337 338 339 340 339 338 336 335 335 335 334 336 340 338 333 327 329 327 327 324 325 322 324 320 314 315 316 315 312 306 308 311 307 304 298 296 296 296 301 296
Height
5891 5890 5890 5890 5890 5890 5890 5889 5889 5888 5888 5887 5887 5887 5887 5887 5887 5887 5887 5887 5887 5887 5887 5887 5887 5887 5888 5888 5889 5889 5889 5889 5890 5890 5890 5890 5890 5890 5890 5891 5891 5891 5890
5893 5892 5892 5892 5892 5892 5892 5891 5891 5890 5890 5889 5889 5888 5888 5888 5888 5888 5888 5888 5888 5888 5888 5888 5888 5889 5889 5890 5890 5890 5890 5890 5891 5891 5891 5891 5891 5891 5891 5891 5891 5891 5891
5895 5894 5894 5894 5894 5894 5893 5893 5893 5892 5892 5891 5890 5890 5890 5890 5890 5890 5890 5890 5890 5890 5890 5889 5890 5890 5890 5891 5891 5891 5891 5892 5892 5892 5892 5892 5892 5892 5892 5892 5892 5892 5892
5897 5896 5896 5896 5896 5896 5895 5895 5894 5894 5894 5893 5892 5892 5891 5891 5891 5891 5891 5891 5891 5891 5890 5890 5891 5891 5891 5892 5892 5892 5893 5893 5893 5893 5893 5893 5893 5893 5893 5893 5893 5893 5893
5899 5898 5898 5898 5897 5897 5897 5896 5896 5896 5895 5895 5894 5893 5893 5892 5892 5892 5892 5891 5891 5892 5892 5891 5892 5892 5892 5892 5893 5893 5893 5893 5894 5894 5894 5894 5894 5894 5894 5894 5894 5894 5894
5900 5900 5900 5899 5899 5898 5898 5898 5898 5897 5897 5896 5896 5895 5895 5894 5894 5893 5893 5892 5893 5893 5893 5892 5893 5893 5893 5893 5894 5894 5894 5894 5894 5894 5894 5895 5895 5895 5895 5895 5895 5895 5895
5902 5901 5901 5900 5900 5900 5899 5899 5899 5899 5898 5898 5897 5897 5896 5896 5895 5895 5894 5894 5894 5894 5894 5894 5894 5894 5894 5894 5894 5894 5895 5895 5895 5895 5895 5895 5896 5896 5896 5896 5896 5896 5896
5903 5903 5902 5902 5901 5901 5900 5900 5900 5900 5899 5899 5898 5898 5897 5897 5896 5896 5896 5895 5895 5895 5895 5895 5895 5895 5895 5895 5895 5895 5895 5895 5895 5895 5896 5896 5896 5897 5897 5897 5897 5897 5897
5905 5905 5904 5903 5902 5902 5901 5901 5901 5901 5900 5900 5899 5899 5898 5898 5897 5897 5897 5896 5896 5896 5896 5896 5896 5895 5895 5895 5896 5896 5896 5896 5896 5895 5896 5896 5897 5897 5897 5897 5897 5898 5898
5907 5906 5905 5904 5904 5903 5903 5903 5903 5902 5901 5901 5900 5900 5900 5899 5898 5898 5897 5897 5897 5897 5897 5897 5897 5896 5896 5896 5896 5896 5896 5896 5896 5896 5896 5896 5897 5897 5897 5898 5898 5898 5898
5908 5907 5906 5906 5905 5905 5904 5904 5904 5903 5902 5902 5901 5901 5900 5900 5899 5898 5898 5898 5898 5898 5898 5898 5898 5897 5897 5897 5897 5897 5897 5897 5897 5896 5896 5896 5897 5897 5898 5898 5898 5898 5898
5909 5908 5908 5907 5907 5906 5906 5905 5905 5904 5903 5903 5903 5902 5902 5901 5901 5900 5899 5899 5899 5899 5899 5898 5898 5898 5898 5897 5897 5897 5897 5897 5897 5897 5897 5897 5897 5897 5898 5898 5898 5898 5898
5910 5909 5909 5909 5908 5908 5907 5906 5906 5905 5904 5904 5904 5903 5903 5902 5901 5901 5900 5900 5900 5899 5899 5899 5899 5898 5898 5898 5898 5898 5898 5898 5898 5898 5897 5897 5897 5897 5898 5898 5898 5898 5898
5911 5911 5910 5910 5910 5909 5909 5908 5907 5907 5906 5905 5904 5904 5903 5903 5902 5902 5901 5901 5900 5900 5900 5899 5899 5899 5899 5898 5898 5898 5898 5898 5898 5898 5897 5897 5897 5897 5897 5898 5898 5898 5898
5912 5912 5911 5911 5910 5910 5909 5909 5908 5907 5906 5906 5905 5904 5903 5903 5902 5902 5902 5901 5901 5900 5900 5900 5899 5899 5899 5898 5898 5898 5898 5898 5898 5898 5897 5897 5897 5897 5897 5897 5897 5897 5897
5913 5913 5912 5912 5911 5911 5910 5910 5909 5908 5907 5906 5905 5904 5904 5903 5903 5902 5902 5901 5901 5900 5900 5900 5899 5899 5899 5898 5898 5898 5898 5897 5897 5897 5897 5897 5897 5896 5896 5896 5897 5897 5897
5914 5914 5914 5913 5912 5911 5911 5910 5910 5909 5907 5906 5905 5904 5903 5903 5903 5902 5902 5901 5900 5900 5900 5899 5899 5899 5898 5898 5897 5897 5897 5897 5897 5897 5897 5897 5896 5896 5896 5896 5896 5896 5896
5915 5915 5915 5914 5913 5912 5911 5911 5910 5909 5908 5907 5905 5904 5903 5903 5903 5902 5902 5901 5900 5900 5899 5899 5899 5898 5898 5897 5897 5897 5896 5896 5896 5896 5896 5896 5896 5896 5896 5896 5896 5895 5895
5916 5916 5915 5914 5913 5912 5912 5911 5910 5909 5908 5907 5906 5905 5904 5903 5902 5902 5901 5900 5900 5899 5899 5898 5898 5897 5897 5897 5896 5896 5896 5896 5896 5895 5895 5895 5895 5895 5895 5895 5895 5895 5895
5917 5916 5916 5915 5914 5913 5912 5912 5911 5910 5909 5907 5906 5905 5904 5903 5902 5902 5901 5900 5899 5899 5898 5898 5897 5896 5896 5895 5895 5895 5895 5894 5894 5894 5894 5894 5894 5894 5894 5894 5894 5893 5893
5917 5916 5916 5915 5914 5913 5912 5912 5911 5910 5909 5908 5906 5905 5904 5903 5902 5901 5900 5899 5898 5898 5897 5897 5896 5896 5895 5895 5894 5894 5894 5893 5893 5892 5892 5892 5892 5893 5893 5893 5892 5892 5892
5917 5916 5916 5915 5914 5913 5912 5911 5911 5910 5909 5907 5906 5905 5904 5902 5902 5901 5899 5898 5897 5897 5897 5896 5895 5895 5894 5894 5893 5893 5892 5892 5891 5891 5890 5890 5891 5891 5891 5891 5891 5890 5890
5917 5916 5915 5914 5913 5912 5912 5911 5910 5909 5908 5907 5906 5905 5903 5902 5901 5900 5898 5897 5896 5896 5896 5895 5895 5894 5893 5893 5892 5892 5891 5891 5890 5889 5889 5889 5889 5890 5889 5889 5889 5888 5888
5917 5916 5915 5914 5913 5912 5911 5910 5909 5908 5908 5907 5906 5905 5903 5902 5901 5899 5898 5896 5896 5895 5895 5894 5894 5893 5892 5892 5891 5890 5890 5889 5889 5888 5888 5888 5887 5887 5887 5887 5887 5887 5886
5916 5916 5915 5914 5912 5912 5911 5910 5909 5908 5907 5906 5905 5904 5903 5901 5899 5898 5896 5895 5894 5894 5894 5893 5893 5892 5891 5891 5890 5889 5889 5888 5888 5887 5887 5886 5886 5885 5885 5885 5885 5884 5884
5916 5915 5914 5913 5912 5911 5910 5909 5908 5907 5906 5905 5904 5903 5902 5900 5898 5896 5895 5893 5893 5893 5892 5892 5891 5891 5890 5889 5889 5888 5887 5887 5886 5886 5885 5884 5884 5883 5883 5882 5882 5882 5881